Franklin, PA

10:06 PM EST on December 10, 2019 (GMT -0500)
Venango Regional

Weather History for KFKL - August, 2019

Change the Weather History Date:

Wednesday, August 21, 2019

  Actual Average Record
Temperature  
Mean Temperature 72 °F -  
Max Temperature 80 °F 77 °F 93 °F (1947)
Min Temperature 66 °F 55 °F 40 °F (1934)
Cooling Degree Days 8    
Growing Degree Days 22 (Base 50)    
Moisture  
Dew Point 67 °F    
Average Humidity 92    
Maximum Humidity 100    
Minimum Humidity 69    
Precipitation  
Precipitation 0.48 in - - ()
Sea Level Pressure  
Sea Level Pressure 29.96 in    
Wind  
Wind Speed 6 mph (SW)    
Max Wind Speed 13 mph    
Max Gust Speed 20 mph    
Visibility 7 miles    
Events Fog , Rain , Thunderstorm    
Averages and records for this station are not official NWS values.
T = Trace of Precipitation, MM = Missing Value Source: NWS Daily Summary

Daily Weather History Graph

Daily Weather History Graph

Search for Another Location

Airport or City:

Astronomy

Aug. 21, 2019 Rise Set
Actual Time 6:34 AM EDT 8:10 PM EDT
Civil Twilight 6:05 AM EDT 8:39 PM EDT
Nautical Twilight 5:29 AM EDT 9:14 PM EDT
Astronomical Twilight 4:52 AM EDT 9:51 PM EDT
Moon 11:22 PM EDT (8/21) 12:12 PM EDT (8/21)
Length of Visible Light 14h 34m
Length of Day
13h 35m
Waning Gibbous, 69% of the Moon is Illuminated
Aug 21
Waning Gibbous
Aug 23
Last Quarter
Aug 30
New
Sep 5
First Quarter
Sep 14
Full

Hourly Weather History & Observations

Time (EDT) Temp. Dew Point Humidity Pressure Visibility Wind Dir Wind Speed Gust Speed Precip Events Conditions
12:56 AM 68.0 °F 66.0 °F 93% 29.98 in 10.0 mi South 4.6 mph - 0.00 in   Mostly Cloudy
1:56 AM 66.9 °F 66.0 °F 97% 29.97 in 9.0 mi SSW 4.6 mph - N/A   Overcast
2:56 AM 66.9 °F 66.0 °F 97% 29.96 in 10.0 mi South 9.2 mph - 0.05 in   Partly Cloudy
3:46 AM 68.0 °F 66.2 °F 94% 29.98 in 10.0 mi South 9.2 mph - 0.00 in   Mostly Cloudy
3:53 AM 68.0 °F 66.2 °F 94% 29.97 in 10.0 mi SSW 8.1 mph - 0.00 in   Overcast
3:56 AM 66.9 °F 66.0 °F 97% 29.94 in 10.0 mi SSW 8.1 mph - 0.00 in   Mostly Cloudy
4:10 AM 66.2 °F 66.2 °F 100% 29.97 in 10.0 mi SSW 6.9 mph - N/A   Scattered Clouds
4:46 AM 66.2 °F 66.2 °F 100% 29.99 in 7.0 mi Variable 5.8 mph - 0.02 in Rain Rain
4:56 AM 66.9 °F 66.0 °F 97% 29.96 in 8.0 mi Variable 4.6 mph - 0.03 in Rain Rain
5:56 AM 66.9 °F 66.0 °F 97% 29.93 in 9.0 mi Variable 4.6 mph - 0.14 in Rain Light Rain
6:29 AM 66.2 °F 66.2 °F 100% 29.96 in 10.0 mi South 8.1 mph - 0.01 in Rain , Thunderstorm Light Rain
6:48 AM 66.2 °F 66.2 °F 100% 29.99 in 8.0 mi NNW 8.1 mph - 0.01 in Thunderstorm Thunderstorm
6:56 AM 66.9 °F 66.0 °F 97% 29.98 in 10.0 mi NW 8.1 mph - 0.01 in Thunderstorm Thunderstorm
7:11 AM 66.2 °F 64.4 °F 94% 29.98 in 3.0 mi West 10.4 mph 17.3 mph 0.18 in Rain , Thunderstorm Heavy Thunderstorms and Rain
7:23 AM 66.2 °F 64.4 °F 94% 29.97 in 9.0 mi SSW 6.9 mph - 0.22 in Rain Rain
7:51 AM 66.2 °F 66.2 °F 100% 29.97 in 10.0 mi South 4.6 mph - 0.23 in Rain Light Rain
7:56 AM 66.9 °F 66.0 °F 97% 29.95 in 10.0 mi South 6.9 mph - 0.23 in   Mostly Cloudy
8:07 AM 66.2 °F 66.2 °F 100% 29.98 in 6.0 mi SW 4.6 mph - N/A   Overcast
8:25 AM 68.0 °F 66.2 °F 94% 29.98 in 9.0 mi SSW 5.8 mph - N/A   Mostly Cloudy
8:38 AM 68.0 °F 66.2 °F 94% 29.98 in 9.0 mi SW 5.8 mph - N/A   Mostly Cloudy
8:53 AM 68.0 °F 66.2 °F 94% 29.98 in 6.0 mi SSW 5.8 mph - N/A   Overcast
8:56 AM 68.0 °F 66.9 °F 96% 29.95 in 6.0 mi SSW 4.6 mph - N/A   Overcast
9:15 AM 68.0 °F 68.0 °F 100% 29.98 in 2.0 mi SW 4.6 mph - N/A   Overcast
9:24 AM 68.0 °F 68.0 °F 100% 29.98 in 1.2 mi SW 6.9 mph - N/A   Overcast
9:31 AM 68.0 °F 68.0 °F 100% 29.97 in 1.0 mi SSW 6.9 mph - N/A   Overcast
9:38 AM 68.0 °F 68.0 °F 100% 29.97 in 0.8 mi SW 6.9 mph - N/A   Overcast
9:56 AM 69.1 °F 68.0 °F 96% 29.95 in 1.2 mi SSW 6.9 mph - N/A   Overcast
10:12 AM 69.8 °F 69.8 °F 100% 29.97 in 3.0 mi SSW 5.8 mph - N/A   Overcast
10:56 AM 70.0 °F 69.1 °F 97% 29.95 in 5.0 mi SSW 5.8 mph - N/A   Overcast
11:40 AM 73.4 °F 69.8 °F 88% 29.98 in 10.0 mi SW 8.1 mph - N/A   Overcast
11:56 AM 73.0 °F 69.1 °F 87% 29.96 in 10.0 mi SSW 6.9 mph - N/A   Overcast
12:10 PM 73.4 °F 69.8 °F 88% 29.99 in 10.0 mi SW 8.1 mph - N/A   Overcast
12:20 PM 75.2 °F 71.6 °F 89% 29.98 in 10.0 mi SSW 8.1 mph - N/A   Mostly Cloudy
12:56 PM 77.0 °F 69.1 °F 76% 29.94 in 10.0 mi WSW 9.2 mph - N/A   Scattered Clouds
1:09 PM 78.8 °F 69.8 °F 74% 29.97 in 10.0 mi Variable 6.9 mph - N/A   Mostly Cloudy
1:56 PM 79.0 °F 69.1 °F 72% 29.94 in 10.0 mi WSW 5.8 mph - N/A   Mostly Cloudy
2:20 PM 78.8 °F 69.8 °F 74% 29.96 in 10.0 mi SW 11.5 mph - N/A   Overcast
2:27 PM 78.8 °F 69.8 °F 74% 29.96 in 10.0 mi SW 9.2 mph - N/A   Overcast
2:34 PM 78.8 °F 69.8 °F 74% 29.96 in 10.0 mi WSW 9.2 mph - N/A   Mostly Cloudy
2:56 PM 77.0 °F 70.0 °F 79% 29.94 in 10.0 mi SSW 9.2 mph - 0.00 in Rain Light Rain
3:56 PM 79.0 °F 69.1 °F 72% 29.91 in 10.0 mi SSW 9.2 mph 18.4 mph 0.00 in   Scattered Clouds
4:35 PM 78.8 °F 69.8 °F 74% 29.94 in 10.0 mi SSW 10.4 mph - N/A   Mostly Cloudy
4:56 PM 79.0 °F 68.0 °F 69% 29.92 in 10.0 mi WSW 12.7 mph 17.3 mph N/A   Overcast
5:56 PM 75.0 °F 68.0 °F 79% 29.93 in 10.0 mi WNW 6.9 mph 19.6 mph N/A Rain Light Rain
6:56 PM 72.0 °F 69.1 °F 91% 29.92 in 10.0 mi Calm Calm - 0.01 in   Mostly Cloudy
7:36 PM 71.6 °F 68.0 °F 88% 29.95 in 10.0 mi West 4.6 mph - 0.00 in Rain Light Rain
7:52 PM 71.6 °F 68.0 °F 88% 29.95 in 10.0 mi SSW 5.8 mph - 0.00 in Rain Light Rain
7:56 PM 70.0 °F 68.0 °F 93% 29.93 in 10.0 mi SW 4.6 mph - 0.00 in   Overcast
8:14 PM 69.8 °F 69.8 °F 100% 29.95 in 10.0 mi SSW 4.6 mph - 0.01 in   Mostly Cloudy
8:22 PM 69.8 °F 68.0 °F 94% 29.94 in 10.0 mi SSW 3.5 mph - 0.01 in   Mostly Cloudy
8:56 PM 69.1 °F 68.0 °F 96% 29.94 in 7.0 mi West 3.5 mph - 0.01 in   Mostly Cloudy
9:48 PM 68.0 °F 68.0 °F 100% 29.97 in 2.0 mi South 3.5 mph - N/A   Clear
9:56 PM 66.9 °F 66.9 °F 100% 29.95 in 5.0 mi SSW 3.5 mph - N/A   Clear
10:17 PM 66.2 °F 66.2 °F 100% 29.97 in 1.8 mi SW 4.6 mph - N/A   Partly Cloudy
10:22 PM 66.2 °F 66.2 °F 100% 29.97 in 0.8 mi SW 3.5 mph - N/A   Scattered Clouds
10:31 PM 66.2 °F 66.2 °F 100% 29.97 in 1.2 mi SW 4.6 mph - N/A   Mostly Cloudy
10:42 PM 68.0 °F 66.2 °F 94% 29.97 in 1.5 mi SW 3.5 mph - N/A   Mostly Cloudy
10:44 PM 68.0 °F 66.2 °F 94% 29.97 in 0.8 mi SSW 4.6 mph - N/A   Mostly Cloudy
10:52 PM 66.2 °F 66.2 °F 100% 29.97 in 0.5 mi South 4.6 mph - N/A Fog Fog
10:56 PM 66.9 °F 66.9 °F 100% 29.95 in 0.8 mi SSW 4.6 mph - N/A   Scattered Clouds
11:00 PM 66.2 °F 66.2 °F 100% 29.97 in 1.2 mi SSW 4.6 mph - N/A   Scattered Clouds
11:08 PM 66.2 °F 66.2 °F 100% 29.97 in 3.0 mi SSW 4.6 mph - N/A   Scattered Clouds
11:56 PM 66.9 °F 66.9 °F 100% 29.95 in 10.0 mi SSW 5.8 mph - N/A   Scattered Clouds